DLH5C EDDK-EDDN

Flight info

Callsign DLH5C
Flight time N/A
Altitude 23000
Route KUMIK1R/31R KUMIK L603 BOMBI N850 KRH T128 BADSO BADSO2A
Aircraft A320/M-SDE3FGHIRWY/LB1

Departure

Time N/A
Airport Cologne Bonn Airport (EDDK)

Arrival

Time 2026-05-04 20:36
Airport Nuremberg Airport (EDDN)
Time Latitude Longitude Altitude Speed Heading
2026-05-04 20:12 50.25529 8.70774 22994 ft 464 kts 166°
2026-05-04 20:12 50.22433 8.72219 22996 ft 464 kts 166°
2026-05-04 20:12 50.19355 8.73656 22997 ft 464 kts 166°
2026-05-04 20:13 50.16308 8.75076 22997 ft 464 kts 166°
2026-05-04 20:13 50.13217 8.76514 22997 ft 464 kts 166°
2026-05-04 20:13 50.10123 8.77951 22996 ft 464 kts 166°
2026-05-04 20:13 50.06978 8.78969 22985 ft 460 kts 176°
2026-05-04 20:14 50.03794 8.79074 22989 ft 457 kts 186°
2026-05-04 20:14 50.00633 8.78617 22989 ft 457 kts 183°
2026-05-04 20:14 49.97493 8.79327 22985 ft 463 kts 163°
2026-05-04 20:14 49.94636 8.81674 22984 ft 471 kts 146°
2026-05-04 20:15 49.92255 8.85197 22980 ft 477 kts 132°
2026-05-04 20:15 49.90462 8.89562 22969 ft 484 kts 118°
2026-05-04 20:15 49.89438 8.94551 22968 ft 491 kts 103°
2026-05-04 20:15 49.88845 8.99779 22971 ft 491 kts 105°
2026-05-04 20:16 49.88046 9.04927 22976 ft 490 kts 107°
2026-05-04 20:16 49.87224 9.10058 22965 ft 490 kts 107°
2026-05-04 20:16 49.86393 9.15190 22963 ft 491 kts 107°
2026-05-04 20:16 49.85560 9.20323 22963 ft 491 kts 107°
2026-05-04 20:17 49.84723 9.25468 22961 ft 491 kts 107°
2026-05-04 20:17 49.83887 9.30611 22965 ft 491 kts 107°
2026-05-04 20:17 49.83086 9.35688 22962 ft 493 kts 104°
2026-05-04 20:17 49.82782 9.40994 22962 ft 497 kts 94°
2026-05-04 20:18 49.82721 9.46336 22962 ft 497 kts 93°
2026-05-04 20:18 49.82664 9.51689 22962 ft 497 kts 94°
2026-05-04 20:18 49.82572 9.57042 22951 ft 497 kts 94°
2026-05-04 20:18 49.82466 9.62393 22951 ft 498 kts 94°
2026-05-04 20:19 49.82358 9.67752 22951 ft 498 kts 94°
2026-05-04 20:19 49.82248 9.73108 22950 ft 498 kts 94°
2026-05-04 20:19 49.82138 9.78460 22950 ft 498 kts 94°
2026-05-04 20:19 49.82027 9.83811 22945 ft 493 kts 94°
2026-05-04 20:20 49.81920 9.89033 22934 ft 480 kts 94°
2026-05-04 20:20 49.81818 9.94179 22934 ft 477 kts 94°
2026-05-04 20:20 49.81663 9.99296 22930 ft 474 kts 99°
2026-05-04 20:20 49.80930 10.04198 22637 ft 465 kts 112°
2026-05-04 20:21 49.79776 10.08888 22370 ft 464 kts 114°
2026-05-04 20:21 49.78608 10.13526 22106 ft 462 kts 114°
2026-05-04 20:21 49.76279 10.22685 21582 ft 458 kts 114°
2026-05-04 20:22 49.75111 10.27267 21330 ft 457 kts 114°
2026-05-04 20:22 49.73950 10.31826 21073 ft 455 kts 114°
2026-05-04 20:22 49.72793 10.36366 20802 ft 453 kts 114°
2026-05-04 20:22 49.71642 10.40877 20568 ft 451 kts 114°
2026-05-04 20:23 49.70496 10.45373 20297 ft 449 kts 114°
2026-05-04 20:23 49.69352 10.49864 20050 ft 448 kts 114°
2026-05-04 20:23 49.68596 10.52825 19888 ft 446 kts 114°
2026-05-04 20:23 49.67472 10.57228 19640 ft 437 kts 114°
2026-05-04 20:24 49.66357 10.61579 19393 ft 434 kts 114°
2026-05-04 20:24 49.65244 10.65903 19156 ft 432 kts 114°
2026-05-04 20:24 49.64134 10.70197 18916 ft 430 kts 114°
2026-05-04 20:24 49.63227 10.74602 18509 ft 431 kts 105°
2026-05-04 20:25 49.62727 10.79145 17880 ft 428 kts 101°
2026-05-04 20:25 49.62299 10.83674 17171 ft 423 kts 100°
2026-05-04 20:25 49.61877 10.88137 16454 ft 419 kts 101°
2026-05-04 20:25 49.61467 10.92432 15723 ft 415 kts 101°
2026-05-04 20:26 49.61044 10.96818 14987 ft 411 kts 101°
2026-05-04 20:26 49.60624 11.01157 14269 ft 408 kts 101°
2026-05-04 20:26 49.60206 11.05464 13529 ft 404 kts 101°
2026-05-04 20:26 49.59789 11.09720 12739 ft 400 kts 101°
2026-05-04 20:27 49.59377 11.13881 11977 ft 396 kts 101°
2026-05-04 20:27 49.58962 11.18067 11221 ft 392 kts 101°
2026-05-04 20:27 49.58553 11.22194 10487 ft 388 kts 101°
2026-05-04 20:27 49.58147 11.26279 9759 ft 384 kts 101°
2026-05-04 20:28 49.57741 11.30332 8965 ft 380 kts 101°
2026-05-04 20:28 49.57338 11.34331 8198 ft 376 kts 101°
2026-05-04 20:28 49.56941 11.38289 7449 ft 372 kts 100°
2026-05-04 20:28 49.56538 11.42200 6717 ft 367 kts 100°
2026-05-04 20:29 49.56134 11.46038 5967 ft 354 kts 100°
2026-05-04 20:29 49.55740 11.49636 5294 ft 327 kts 100°
2026-05-04 20:29 49.55357 11.52888 5083 ft 291 kts 103°
2026-05-04 20:29 49.54554 11.55548 5021 ft 269 kts 130°
2026-05-04 20:30 49.53069 11.57244 5028 ft 270 kts 158°
2026-05-04 20:30 49.51236 11.57659 5020 ft 269 kts 186°
2026-05-04 20:30 49.49486 11.56707 4890 ft 269 kts 213°
2026-05-04 20:30 49.48214 11.54630 4492 ft 269 kts 242°
2026-05-04 20:31 49.47568 11.51974 4268 ft 262 kts 253°
2026-05-04 20:31 49.47077 11.49349 4046 ft 255 kts 255°
2026-05-04 20:31 49.46607 11.46798 4002 ft 243 kts 254°
2026-05-04 20:31 49.46239 11.44248 3996 ft 241 kts 271°
2026-05-04 20:32 49.46422 11.41697 4004 ft 240 kts 281°
2026-05-04 20:32 49.46714 11.39205 4002 ft 240 kts 281°
2026-05-04 20:32 49.46985 11.36665 4003 ft 241 kts 279°
2026-05-04 20:32 49.47243 11.34119 4001 ft 241 kts 279°
2026-05-04 20:33 49.47500 11.31565 3814 ft 240 kts 279°
2026-05-04 20:33 49.47752 11.29056 3532 ft 237 kts 280°
2026-05-04 20:33 49.48003 11.26559 3233 ft 235 kts 281°
2026-05-04 20:33 49.48248 11.24115 2926 ft 229 kts 280°
2026-05-04 20:34 49.48482 11.21768 2645 ft 219 kts 281°
2026-05-04 20:34 49.48710 11.19484 2359 ft 210 kts 281°
2026-05-04 20:34 49.48921 11.17356 2090 ft 193 kts 281°
2026-05-04 20:34 49.49112 11.15428 1853 ft 171 kts 281°
2026-05-04 20:35 49.49283 11.13712 1622 ft 154 kts 280°
2026-05-04 20:35 49.49441 11.12131 1424 ft 147 kts 279°
2026-05-04 20:35 49.49591 11.10607 1222 ft 143 kts 279°
2026-05-04 20:35 49.49737 11.09092 1071 ft 143 kts 279°
2026-05-04 20:36 49.49883 11.07690 1025 ft 119 kts 278°
2026-05-04 20:36 49.49994 11.06610 1024 ft 87 kts 279°
2026-05-04 20:36 49.50039 11.05979 1029 ft 24 kts 245°
2026-05-04 20:36 49.49950 11.05939 1021 ft 9 kts 158°
2026-05-04 20:37 49.49923 11.05956 1024 ft 0 kts 158°
2026-05-04 20:37 49.49883 11.05983 1022 ft 16 kts 148°
2026-05-04 20:37 49.49841 11.06157 1020 ft 19 kts 98°
2026-05-04 20:37 49.49818 11.06374 1018 ft 21 kts 99°
2026-05-04 20:38 49.49794 11.06602 1020 ft 22 kts 98°
2026-05-04 20:38 49.49772 11.06845 1020 ft 24 kts 97°
2026-05-04 20:38 49.49746 11.07097 1021 ft 24 kts 99°
2026-05-04 20:38 49.49722 11.07353 1023 ft 23 kts 98°
2026-05-04 20:39 49.49705 11.07538 1024 ft 15 kts 98°
2026-05-04 20:39 49.49690 11.07696 1026 ft 15 kts 98°
2026-05-04 20:39 49.49620 11.07765 1026 ft 13 kts 186°
2026-05-04 20:39 49.49567 11.07800 1027 ft 1 kts 169°
2026-05-04 20:40 49.49547 11.07798 1025 ft 5 kts 188°
2026-05-04 20:40 49.49518 11.07790 1024 ft 0 kts 189°